Humidity-temperature Sensor

Selected Measurement Type: Relative Humidity

 
Relative Humidity [%]     6 entries per hour
Showing data from 12/26/2022 (00:00:00 Z) to 12/23/2022 (00:01:00 Z)
Previous Next [ Day | 3-Days | 7-Days ]
First Last
Prev [ Day | 3-Days | 7-Days ] Next
First Last

Start Time:     :
End Time:     :     
Time (in GMT) :00 :50 :40 :30 :20 :10
Previous Next [ Day | 3-Days | 7-Days ]
First Last
Prev [ Day | 3-Days | 7-Days ] Next
First Last


123 => good data
MM => data is determined as missing
-- => data not received/configured
Back to Top Back to Top
12/26/2022 00:00 to 23:10 91.62 92.05 92.22 92.61 92.92 93.39
12/25/2022 23:00 to 22:10 93.90 94.33 94.99 95.61 95.83 96.16
12/25/2022 22:00 to 21:10 96.31 96.51 96.64 96.88 97.07 97.01
12/25/2022 21:00 to 20:10 97.09 97.15 97.29 97.44 97.48 97.21
12/25/2022 20:00 to 19:10 97.31 97.21 97.21 96.92 97.05 96.92
12/25/2022 19:00 to 18:10 97.01 96.80 97.21 97.38 97.56 97.79
12/25/2022 18:00 to 17:10 97.64 97.68 97.48 97.31 96.94 96.82
12/25/2022 17:00 to 16:10 96.61 96.57 96.74 97.21 97.46 97.74
12/25/2022 16:00 to 15:10 97.64 97.99 98.14 98.73 98.67 99.00
12/25/2022 15:00 to 14:10 99.31 99.70 99.90 100.21 100.56 100.75
12/25/2022 14:00 to 13:10 100.91 100.91 100.91 100.91 100.91 100.91
12/25/2022 13:00 to 12:10 100.91 100.91 100.91 100.91 100.91 100.91
12/25/2022 12:00 to 11:10 100.91 100.91 100.91 100.91 100.91 100.91
12/25/2022 11:00 to 10:10 100.91 100.91 100.91 100.91 100.91 100.91
12/25/2022 10:00 to 9:10 100.91 100.91 100.91 100.91 100.91 100.91
12/25/2022 09:00 to 8:10 100.91 100.91 100.89 100.87 100.91 100.87
12/25/2022 08:00 to 7:10 100.91 100.83 100.72 100.79 100.62 100.19
12/25/2022 07:00 to 6:10 99.96 99.61 99.41 99.29 98.55 96.98
12/25/2022 06:00 to 5:10 94.48 94.89 94.37 94.00 93.84 93.70
12/25/2022 05:00 to 4:10 93.82 93.92 94.21 94.42 94.62 95.09
12/25/2022 04:00 to 3:10 95.14 95.26 95.40 95.59 95.59 95.73
12/25/2022 03:00 to 2:10 95.81 95.94 95.90 95.92 96.08 96.31
12/25/2022 02:00 to 1:10 96.57 96.66 96.74 96.84 96.90 97.09
12/25/2022 01:00 to 0:10 97.17 97.35 97.19 97.27 97.31 97.52
12/25/2022 00:00 to 23:10 97.48 97.64 97.66 97.70 97.93 98.07
12/24/2022 23:00 to 22:10 98.24 98.51 98.46 98.77 98.83 99.02
12/24/2022 22:00 to 21:10 99.06 99.16 99.24 99.02 98.90 98.61
12/24/2022 21:00 to 20:10 98.65 98.55 98.55 98.53 98.40 98.36
12/24/2022 20:00 to 19:10 98.16 97.87 97.60 96.94 96.94 96.72
12/24/2022 19:00 to 18:10 96.47 96.39 96.35 96.49 96.51 96.72
12/24/2022 18:00 to 17:10 96.90 97.11 97.46 97.38 97.58 97.35
12/24/2022 17:00 to 16:10 97.33 97.07 96.82 96.84 96.72 96.90
12/24/2022 16:00 to 15:10 96.57 96.82 97.03 96.92 96.64 96.51
12/24/2022 15:00 to 14:10 96.64 96.47 96.33 96.12 95.98 96.02
12/24/2022 14:00 to 13:10 96.10 95.94 95.92 96.00 95.94 95.81
12/24/2022 13:00 to 12:10 95.77 96.00 96.47 97.11 97.74 98.36
12/24/2022 12:00 to 11:10 98.90 99.24 100.01 100.29 100.66 100.91
12/24/2022 11:00 to 10:10 100.91 100.91 100.91 100.91 100.91 100.91
12/24/2022 10:00 to 9:10 100.91 100.91 100.91 100.91 100.91 100.91
12/24/2022 09:00 to 8:10 100.91 100.91 100.91 100.91 100.91 100.91
12/24/2022 08:00 to 7:10 100.91 100.93 100.91 100.91 100.93 100.85
12/24/2022 07:00 to 6:10 100.66 100.54 100.46 100.17 99.98 99.72
12/24/2022 06:00 to 5:10 99.41 99.41 98.94 98.69 97.93 97.07
12/24/2022 05:00 to 4:10 96.68 97.35 97.25 97.25 97.13 96.84
12/24/2022 04:00 to 3:10 96.76 96.35 96.18 96.43 96.92 97.01
12/24/2022 03:00 to 2:10 97.15 97.03 97.27 97.33 97.42 97.83
12/24/2022 02:00 to 1:10 97.68 97.79 98.18 98.63 98.88 99.16
12/24/2022 01:00 to 0:10 99.47 99.74 99.96 100.05 100.38 100.77
12/24/2022 00:00 to 23:10 100.60 100.72 100.56 100.81 100.56 100.48
12/23/2022 23:00 to 22:10 100.42 100.21 100.19 99.94 100.01 100.15
12/23/2022 22:00 to 21:10 100.25 100.27 100.23 100.54 100.56 100.56
12/23/2022 21:00 to 20:10 100.72 100.68 100.72 100.54 100.56 100.50
12/23/2022 20:00 to 19:10 100.66 100.58 100.58 100.68 100.64 100.64
12/23/2022 19:00 to 18:10 100.68 100.85 100.70 100.66 100.70 100.72
12/23/2022 18:00 to 17:10 100.66 100.62 100.44 100.25 99.64 99.41
12/23/2022 17:00 to 16:10 99.51 99.51 99.61 99.70 99.64 99.20
12/23/2022 16:00 to 15:10 99.10 99.00 98.71 98.59 98.32 98.14
12/23/2022 15:00 to 14:10 98.14 97.91 97.62 97.42 96.76 96.45
12/23/2022 14:00 to 13:10 96.04 95.71 95.28 94.83 94.79 94.56
12/23/2022 13:00 to 12:10 94.13 93.55 93.45 93.24 93.08 92.69
12/23/2022 12:00 to 11:10 92.87 93.06 92.79 92.75 92.85 92.96
12/23/2022 11:00 to 10:10 92.87 93.00 93.04 93.20 93.41 93.43
12/23/2022 10:00 to 9:10 93.94 94.15 94.52 94.52 94.40 94.87
12/23/2022 09:00 to 8:10 95.01 95.63 96.08 96.49 97.01 97.29
12/23/2022 08:00 to 7:10 97.62 98.01 98.09 98.28 98.57 98.71
12/23/2022 07:00 to 6:10 99.00 99.06 99.24 99.27 99.68 99.90
12/23/2022 06:00 to 5:10 100.21 100.42 100.48 100.25 100.40 100.25
12/23/2022 05:00 to 4:10 100.21 100.70 100.87 100.89 100.91 100.91
12/23/2022 04:00 to 3:10 100.91 100.91 100.91 100.91 100.91 100.91
12/23/2022 03:00 to 2:10 100.91 100.91 100.91 100.91 100.91 100.91
12/23/2022 02:00 to 1:10 100.91 100.91 100.91 100.91 100.91 100.91
12/23/2022 01:00 to 0:10 100.91 100.91 100.91 100.91 100.91 100.91